Time,TemperatureF,DewpointF,PressureIn,WindDirection,WindDirectionDegrees,WindSpeedMPH,WindSpeedGustMPH,Humidity,HourlyPrecipIn,Conditions,Clouds,dailyrainin,SoftwareType,DateUTC
2013-10-24 00:00:00,31.3,19.0,30.01,NW,316,3.1,3.1,60,0.00,,---,0.00,VWS V13.01,2013-10-24 05:00:00,
2013-10-24 00:05:00,31.3,19.0,30.01,NW,316,0.0,0.0,60,0.00,,---,0.00,VWS V13.01,2013-10-24 05:05:00,
2013-10-24 00:10:00,31.1,18.9,30.01,West,277,2.7,2.7,60,0.00,,---,0.00,VWS V13.01,2013-10-24 05:10:00,
2013-10-24 00:15:00,31.1,18.9,30.01,West,277,0.0,0.0,60,0.00,,---,0.00,VWS V13.01,2013-10-24 05:15:00,
2013-10-24 00:20:00,31.1,18.9,30.01,SSW,203,3.1,3.6,60,0.00,,---,0.00,VWS V13.01,2013-10-24 05:20:00,
2013-10-24 00:25:00,31.1,18.9,30.01,WNW,299,0.0,0.0,60,0.00,,---,0.00,VWS V13.01,2013-10-24 05:25:00,
2013-10-24 00:30:00,31.1,19.2,30.01,WNW,299,0.0,0.0,61,0.00,,---,0.00,VWS V13.01,2013-10-24 05:30:00,
2013-10-24 00:35:00,31.1,19.2,30.01,North,2,0.0,0.0,61,0.00,,---,0.00,VWS V13.01,2013-10-24 05:35:00,
2013-10-24 00:40:00,31.1,19.6,30.01,NNW,339,3.6,3.6,62,0.00,,---,0.00,VWS V13.01,2013-10-24 05:40:00,
2013-10-24 00:45:00,31.3,19.8,30.01,NNW,333,5.1,5.1,62,0.00,,---,0.00,VWS V13.01,2013-10-24 05:45:00,
2013-10-24 00:50:00,31.3,20.2,30.01,NNW,342,3.1,4.5,63,0.00,,---,0.00,VWS V13.01,2013-10-24 05:50:00,
2013-10-24 00:55:00,31.3,20.5,30.01,NW,322,3.1,4.0,64,0.00,,---,0.00,VWS V13.01,2013-10-24 05:55:00,
2013-10-24 01:00:00,31.3,20.5,30.01,NNW,330,3.6,4.7,64,0.00,,---,0.00,VWS V13.01,2013-10-24 06:00:00,
2013-10-24 01:05:00,31.1,20.7,30.01,North,1,4.0,4.0,65,0.00,,---,0.00,VWS V13.01,2013-10-24 06:05:00,
2013-10-24 01:11:00,31.1,21.1,30.01,NNW,338,4.0,4.0,66,0.00,,---,0.00,VWS V13.01,2013-10-24 06:11:00,
2013-10-24 01:16:00,31.1,21.1,30.01,North,357,2.7,3.1,66,0.00,,---,0.00,VWS V13.01,2013-10-24 06:16:00,
2013-10-24 01:21:00,31.1,21.4,30.01,North,357,4.0,4.0,67,0.00,,---,0.00,VWS V13.01,2013-10-24 06:21:00,
2013-10-24 01:26:00,31.3,21.6,30.01,ESE,116,4.0,4.0,67,0.00,,---,0.00,VWS V13.01,2013-10-24 06:26:00,
2013-10-24 01:31:00,31.3,21.6,30.04,North,4,0.0,4.0,67,0.00,,---,0.00,VWS V13.01,2013-10-24 06:31:00,
2013-10-24 01:36:00,31.5,21.4,30.04,NW,322,2.7,4.0,66,0.00,,---,0.00,VWS V13.01,2013-10-24 06:36:00,
2013-10-24 01:41:00,31.6,21.2,30.04,NW,320,3.6,4.0,65,0.00,,---,0.00,VWS V13.01,2013-10-24 06:41:00,
2013-10-24 01:46:00,31.6,21.2,30.04,NW,320,2.7,4.0,65,0.00,,---,0.00,VWS V13.01,2013-10-24 06:46:00,
2013-10-24 01:51:00,31.6,20.9,30.04,NW,326,4.5,4.7,64,0.00,,---,0.00,VWS V13.01,2013-10-24 06:51:00,
2013-10-24 01:56:00,31.5,20.3,30.04,NNW,329,4.0,4.5,63,0.00,,---,0.00,VWS V13.01,2013-10-24 06:56:00,
2013-10-24 02:01:00,31.5,20.3,30.04,NNW,329,4.0,4.0,63,0.00,,---,0.00,VWS V13.01,2013-10-24 07:01:00,
2013-10-24 02:06:00,31.5,20.7,30.04,NNW,340,3.6,3.6,64,0.00,,---,0.00,VWS V13.01,2013-10-24 07:06:00,
2013-10-24 02:11:00,31.6,20.9,30.04,NNW,340,3.6,4.5,64,0.00,,---,0.00,VWS V13.01,2013-10-24 07:11:00,
2013-10-24 02:16:00,31.8,21.0,30.04,North,357,3.1,4.0,64,0.00,,---,0.00,VWS V13.01,2013-10-24 07:16:00,
2013-10-24 02:22:00,31.8,20.7,30.04,North,353,3.1,4.0,63,0.00,,---,0.00,VWS V13.01,2013-10-24 07:22:00,
2013-10-24 02:27:00,32.0,20.5,30.04,NNW,341,4.5,4.5,62,0.00,,---,0.00,VWS V13.01,2013-10-24 07:27:00,
2013-10-24 02:32:00,32.0,19.7,30.04,North,357,4.5,4.5,60,0.00,,---,0.00,VWS V13.01,2013-10-24 07:32:00,
2013-10-24 02:37:00,32.2,19.5,30.04,North,357,4.5,4.5,59,0.00,,---,0.00,VWS V13.01,2013-10-24 07:37:00,
2013-10-24 02:42:00,32.2,18.7,30.04,North,357,4.5,4.5,57,0.00,,---,0.00,VWS V13.01,2013-10-24 07:42:00,
2013-10-24 02:47:00,32.2,18.3,30.04,NNW,339,3.1,4.0,56,0.00,,---,0.00,VWS V13.01,2013-10-24 07:47:00,
2013-10-24 02:52:00,32.4,18.4,30.04,NW,322,4.7,4.7,56,0.00,,---,0.00,VWS V13.01,2013-10-24 07:52:00,
2013-10-24 02:57:00,32.4,18.0,30.04,NW,306,2.7,4.5,55,0.00,,---,0.00,VWS V13.01,2013-10-24 07:57:00,
2013-10-24 03:02:00,32.4,18.0,30.04,North,350,3.1,4.0,55,0.00,,---,0.00,VWS V13.01,2013-10-24 08:02:00,
2013-10-24 03:07:00,32.4,18.0,30.04,NNE,24,4.7,4.7,55,0.00,,---,0.00,VWS V13.01,2013-10-24 08:07:00,
2013-10-24 03:12:00,32.4,17.6,30.04,North,0,4.0,4.0,54,0.00,,---,0.00,VWS V13.01,2013-10-24 08:12:00,
2013-10-24 03:17:00,32.4,17.6,30.04,North,2,3.1,3.6,54,0.00,,---,0.00,VWS V13.01,2013-10-24 08:17:00,
2013-10-24 03:22:00,32.4,17.6,30.04,North,353,4.0,4.0,54,0.00,,---,0.00,VWS V13.01,2013-10-24 08:22:00,
2013-10-24 03:27:00,32.4,17.6,30.04,North,350,4.0,4.0,54,0.00,,---,0.00,VWS V13.01,2013-10-24 08:27:00,
2013-10-24 03:32:00,32.2,17.0,30.04,North,357,3.1,3.1,53,0.00,,---,0.00,VWS V13.01,2013-10-24 08:32:00,
2013-10-24 03:38:00,32.2,17.0,30.04,West,269,3.1,4.0,53,0.00,,---,0.00,VWS V13.01,2013-10-24 08:38:00,
2013-10-24 03:43:00,32.2,17.0,30.07,North,2,4.5,4.5,53,0.00,,---,0.00,VWS V13.01,2013-10-24 08:43:00,
2013-10-24 03:48:00,32.4,17.1,30.07,NNW,329,3.6,3.6,53,0.00,,---,0.00,VWS V13.01,2013-10-24 08:48:00,
2013-10-24 03:53:00,32.4,17.1,30.07,NW,325,4.7,4.7,53,0.00,,---,0.00,VWS V13.01,2013-10-24 08:53:00,
2013-10-24 03:58:00,32.4,17.1,30.07,NNW,327,4.0,4.0,53,0.00,,---,0.00,VWS V13.01,2013-10-24 08:58:00,
2013-10-24 04:03:00,32.5,17.3,30.07,NNW,343,2.7,2.7,53,0.00,,---,0.00,VWS V13.01,2013-10-24 09:03:00,
2013-10-24 04:08:00,32.4,17.1,30.07,NNW,336,4.0,4.0,53,0.00,,---,0.00,VWS V13.01,2013-10-24 09:08:00,
2013-10-24 04:13:00,32.4,17.1,30.07,North,8,0.0,3.1,53,0.00,,---,0.00,VWS V13.01,2013-10-24 09:13:00,
2013-10-24 04:18:00,32.4,17.1,30.07,North,3,3.1,3.6,53,0.00,,---,0.00,VWS V13.01,2013-10-24 09:18:00,
2013-10-24 04:23:00,32.4,17.1,30.07,NNW,339,4.0,4.7,53,0.00,,---,0.00,VWS V13.01,2013-10-24 09:23:00,
2013-10-24 04:28:00,32.4,17.1,30.07,NNW,335,4.0,4.0,53,0.00,,---,0.00,VWS V13.01,2013-10-24 09:28:00,
2013-10-24 04:33:00,32.4,17.1,30.07,NNW,335,0.0,0.0,53,0.00,,---,0.00,VWS V13.01,2013-10-24 09:33:00,
2013-10-24 04:38:00,32.4,17.1,30.07,North,353,4.0,4.7,53,0.00,,---,0.00,VWS V13.01,2013-10-24 09:38:00,
2013-10-24 04:43:00,32.4,17.1,30.07,NW,306,4.7,4.7,53,0.00,,---,0.00,VWS V13.01,2013-10-24 09:43:00,
2013-10-24 04:48:00,32.5,17.3,30.07,NNW,332,3.1,4.0,53,0.00,,---,0.00,VWS V13.01,2013-10-24 09:48:00,
2013-10-24 04:54:00,32.5,17.3,30.07,NW,308,0.0,4.0,53,0.00,,---,0.00,VWS V13.01,2013-10-24 09:54:00,
2013-10-24 04:59:00,32.7,17.5,30.07,NW,310,2.7,4.7,53,0.00,,---,0.00,VWS V13.01,2013-10-24 09:59:00,
2013-10-24 05:04:00,32.7,17.5,30.07,WSW,253,3.1,4.5,53,0.00,,---,0.00,VWS V13.01,2013-10-24 10:04:00,
2013-10-24 05:09:00,32.5,17.3,30.07,NW,308,4.0,4.5,53,0.00,,---,0.00,VWS V13.01,2013-10-24 10:09:00,
2013-10-24 05:14:00,32.5,17.3,30.07,NNW,335,3.1,3.1,53,0.00,,---,0.00,VWS V13.01,2013-10-24 10:14:00,
2013-10-24 05:19:00,32.7,17.5,30.07,NW,315,3.6,3.6,53,0.00,,---,0.00,VWS V13.01,2013-10-24 10:19:00,
2013-10-24 05:24:00,32.7,17.5,30.07,West,280,2.7,2.7,53,0.00,,---,0.00,VWS V13.01,2013-10-24 10:24:00,
2013-10-24 05:29:00,32.5,17.3,30.07,NW,304,3.6,4.5,53,0.00,,---,0.00,VWS V13.01,2013-10-24 10:29:00,
2013-10-24 05:34:00,32.5,17.3,30.07,NW,320,4.0,4.0,53,0.00,,---,0.00,VWS V13.01,2013-10-24 10:34:00,
2013-10-24 05:39:00,32.5,16.9,30.07,NW,320,0.0,0.0,52,0.00,,---,0.00,VWS V13.01,2013-10-24 10:39:00,
2013-10-24 05:44:00,32.5,17.3,30.07,North,357,0.0,0.0,53,0.00,,---,0.00,VWS V13.01,2013-10-24 10:44:00,
2013-10-24 05:49:00,32.5,17.3,30.07,North,357,0.0,0.0,53,0.00,,---,0.00,VWS V13.01,2013-10-24 10:49:00,
2013-10-24 05:54:00,32.5,17.3,30.07,West,262,3.6,3.6,53,0.00,,---,0.00,VWS V13.01,2013-10-24 10:54:00,
2013-10-24 05:59:00,32.5,17.3,30.10,WNW,289,3.6,3.6,53,0.00,,---,0.00,VWS V13.01,2013-10-24 10:59:00,
2013-10-24 06:04:00,32.5,17.3,30.10,North,353,0.0,0.0,53,0.00,,---,0.00,VWS V13.01,2013-10-24 11:04:00,
2013-10-24 06:09:00,32.5,17.3,30.10,West,278,3.6,3.6,53,0.00,,---,0.00,VWS V13.01,2013-10-24 11:09:00,
2013-10-24 06:15:00,32.5,17.8,30.07,West,266,3.6,5.6,54,0.00,,---,0.00,VWS V13.01,2013-10-24 11:15:00,
2013-10-24 06:20:00,32.5,17.8,30.07,West,278,3.1,4.0,54,0.00,,---,0.00,VWS V13.01,2013-10-24 11:20:00,
2013-10-24 06:25:00,32.5,18.2,30.07,WNW,288,2.7,4.0,55,0.00,,---,0.00,VWS V13.01,2013-10-24 11:25:00,
2013-10-24 06:30:00,32.7,18.4,30.10,NW,307,4.5,4.7,55,0.00,,---,0.00,VWS V13.01,2013-10-24 11:30:00,
2013-10-24 06:35:00,32.7,18.4,30.10,NW,314,3.1,4.5,55,0.00,,---,0.00,VWS V13.01,2013-10-24 11:35:00,
2013-10-24 06:40:00,32.7,18.4,30.10,WNW,295,3.6,4.5,55,0.00,,---,0.00,VWS V13.01,2013-10-24 11:40:00,
2013-10-24 06:45:00,32.9,18.5,30.10,West,265,4.5,6.9,55,0.00,,---,0.00,VWS V13.01,2013-10-24 11:45:00,
2013-10-24 06:50:00,32.9,18.5,30.10,West,276,4.0,4.0,55,0.00,,---,0.00,VWS V13.01,2013-10-24 11:50:00,
2013-10-24 06:55:00,32.9,18.5,30.10,SW,216,6.0,6.0,55,0.00,,---,0.00,VWS V13.01,2013-10-24 11:55:00,
2013-10-24 07:00:00,32.9,18.5,30.10,West,276,5.6,5.6,55,0.00,,---,0.00,VWS V13.01,2013-10-24 12:00:00,
2013-10-24 07:05:00,32.9,18.5,30.10,NW,323,4.0,4.0,55,0.00,,---,0.00,VWS V13.01,2013-10-24 12:05:00,
2013-10-24 07:10:00,32.7,18.4,30.10,WSW,247,3.6,5.6,55,0.00,,---,0.00,VWS V13.01,2013-10-24 12:10:00,
2013-10-24 07:15:00,32.7,18.4,30.10,WNW,297,4.0,4.0,55,0.00,,---,0.00,VWS V13.01,2013-10-24 12:15:00,
2013-10-24 07:20:00,32.5,18.6,30.10,WNW,294,5.1,5.1,56,0.00,,---,0.00,VWS V13.01,2013-10-24 12:20:00,
2013-10-24 07:25:00,32.5,18.6,30.10,North,3,3.1,3.6,56,0.00,,---,0.00,VWS V13.01,2013-10-24 12:25:00,
2013-10-24 07:30:00,32.5,18.6,30.10,WNW,290,5.6,7.4,56,0.00,,---,0.00,VWS V13.01,2013-10-24 12:30:00,
2013-10-24 07:35:00,32.4,18.4,30.10,NNW,341,4.5,4.5,56,0.00,,---,0.00,VWS V13.01,2013-10-24 12:35:00,
2013-10-24 07:40:00,32.4,18.4,30.10,WNW,288,4.5,5.1,56,0.00,,---,0.00,VWS V13.01,2013-10-24 12:40:00,
2013-10-24 07:45:00,32.4,18.4,30.10,NW,307,3.1,3.6,56,0.00,,---,0.00,VWS V13.01,2013-10-24 12:45:00,
2013-10-24 07:50:00,32.4,18.8,30.10,NW,315,4.0,4.0,57,0.00,,---,0.00,VWS V13.01,2013-10-24 12:50:00,
2013-10-24 07:55:00,32.4,18.8,30.10,North,353,4.5,7.4,57,0.00,,---,0.00,VWS V13.01,2013-10-24 12:55:00,
2013-10-24 08:00:00,32.4,18.8,30.10,NNW,346,4.5,4.5,57,0.00,,---,0.00,VWS V13.01,2013-10-24 13:00:00,
2013-10-24 08:05:00,32.4,18.4,30.10,NNW,337,3.1,5.1,56,0.00,,---,0.00,VWS V13.01,2013-10-24 13:05:00,
2013-10-24 08:10:00,32.4,18.4,30.10,North,353,4.0,4.0,56,0.00,,---,0.00,VWS V13.01,2013-10-24 13:10:00,
2013-10-24 08:15:00,32.5,18.6,30.10,WNW,303,4.5,4.5,56,0.00,,---,0.00,VWS V13.01,2013-10-24 13:15:00,
2013-10-24 08:20:00,32.5,18.6,30.10,NW,307,4.0,4.0,56,0.00,,---,0.00,VWS V13.01,2013-10-24 13:20:00,
2013-10-24 08:25:00,32.5,18.6,30.10,NW,316,4.5,4.5,56,0.00,,---,0.00,VWS V13.01,2013-10-24 13:25:00,
2013-10-24 08:30:00,32.5,18.2,30.13,NW,309,4.0,4.5,55,0.00,,---,0.00,VWS V13.01,2013-10-24 13:30:00,
2013-10-24 08:35:00,32.5,18.2,30.13,WSW,252,6.5,6.5,55,0.00,,---,0.00,VWS V13.01,2013-10-24 13:35:00,
2013-10-24 08:40:00,32.5,18.2,30.13,NNW,339,4.0,4.0,55,0.00,,---,0.00,VWS V13.01,2013-10-24 13:40:00,
2013-10-24 08:45:00,32.7,18.4,30.13,NNW,338,4.0,5.1,55,0.00,,---,0.00,VWS V13.01,2013-10-24 13:45:00,
2013-10-24 08:51:00,32.7,18.4,30.13,NNW,348,4.7,5.1,55,0.00,,---,0.00,VWS V13.01,2013-10-24 13:51:00,
2013-10-24 08:56:00,32.7,18.4,30.13,NW,320,5.1,5.1,55,0.00,,---,0.00,VWS V13.01,2013-10-24 13:56:00,
2013-10-24 09:01:00,32.7,18.4,30.13,North,357,4.7,5.1,55,0.00,,---,0.00,VWS V13.01,2013-10-24 14:01:00,
2013-10-24 09:06:00,32.7,18.4,30.13,NNW,329,4.7,4.7,55,0.00,,---,0.00,VWS V13.01,2013-10-24 14:06:00,
2013-10-24 09:11:00,32.9,18.5,30.13,NW,316,6.0,6.0,55,0.00,,---,0.00,VWS V13.01,2013-10-24 14:11:00,
2013-10-24 09:16:00,32.9,18.5,30.13,North,4,4.7,4.7,55,0.00,,---,0.00,VWS V13.01,2013-10-24 14:16:00,
2013-10-24 09:21:00,33.1,18.7,30.13,NNW,328,4.5,6.5,55,0.00,,---,0.00,VWS V13.01,2013-10-24 14:21:00,
2013-10-24 09:26:00,33.1,18.7,30.13,NW,311,4.0,5.1,55,0.00,,---,0.00,VWS V13.01,2013-10-24 14:26:00,
2013-10-24 09:31:00,33.3,18.4,30.13,North,353,5.1,5.1,54,0.00,,---,0.00,VWS V13.01,2013-10-24 14:31:00,
2013-10-24 09:36:00,33.3,18.4,30.13,NNW,331,6.0,6.0,54,0.00,,---,0.00,VWS V13.01,2013-10-24 14:36:00,
2013-10-24 09:41:00,33.4,18.2,30.13,WNW,298,4.5,4.5,53,0.00,,---,0.00,VWS V13.01,2013-10-24 14:41:00,
2013-10-24 09:46:00,33.6,18.3,30.13,NW,320,5.6,5.6,53,0.00,,---,0.00,VWS V13.01,2013-10-24 14:46:00,
2013-10-24 09:51:00,33.8,18.0,30.13,NNE,21,4.5,5.1,52,0.00,,---,0.00,VWS V13.01,2013-10-24 14:51:00,
2013-10-24 09:57:00,33.8,17.6,30.13,North,350,5.1,6.5,51,0.00,,---,0.00,VWS V13.01,2013-10-24 14:57:00,
2013-10-24 10:02:00,34.0,17.8,30.13,WNW,298,4.0,6.5,51,0.00,,---,0.00,VWS V13.01,2013-10-24 15:02:00,
2013-10-24 10:07:00,34.2,17.9,30.13,NNW,344,6.0,8.7,51,0.00,,---,0.00,VWS V13.01,2013-10-24 15:07:00,
2013-10-24 10:12:00,34.3,18.1,30.13,NNW,331,4.7,6.0,51,0.00,,---,0.00,VWS V13.01,2013-10-24 15:12:00,
2013-10-24 10:17:00,34.3,17.6,30.13,NNE,23,3.1,4.7,50,0.00,,---,0.00,VWS V13.01,2013-10-24 15:17:00,
2013-10-24 10:22:00,34.5,17.8,30.13,NW,322,5.6,5.6,50,0.00,,---,0.00,VWS V13.01,2013-10-24 15:22:00,
2013-10-24 10:27:00,34.7,17.5,30.13,North,357,6.5,6.5,49,0.00,,---,0.00,VWS V13.01,2013-10-24 15:27:00,
2013-10-24 10:32:00,34.9,17.7,30.13,NNW,342,5.1,5.1,49,0.00,,---,0.00,VWS V13.01,2013-10-24 15:32:00,
2013-10-24 10:37:00,35.1,17.8,30.13,NNW,342,6.0,6.0,49,0.00,,---,0.00,VWS V13.01,2013-10-24 15:37:00,
2013-10-24 10:42:00,35.2,18.0,30.13,NNW,343,4.7,5.6,49,0.00,,---,0.00,VWS V13.01,2013-10-24 15:42:00,
2013-10-24 10:47:00,35.2,17.5,30.13,NNW,327,4.7,4.7,48,0.00,,---,0.00,VWS V13.01,2013-10-24 15:47:00,
2013-10-24 10:52:00,35.4,17.7,30.13,NNW,342,3.6,4.0,48,0.00,,---,0.00,VWS V13.01,2013-10-24 15:52:00,
2013-10-24 10:57:00,35.6,17.9,30.16,West,270,4.0,6.9,48,0.00,,---,0.00,VWS V13.01,2013-10-24 15:57:00,
2013-10-24 11:03:00,35.4,18.2,30.16,NW,312,4.0,4.7,49,0.00,,---,0.00,VWS V13.01,2013-10-24 16:03:00,
2013-10-24 11:08:00,35.2,18.5,30.16,NNW,335,0.0,0.0,50,0.00,,---,0.00,VWS V13.01,2013-10-24 16:08:00,
2013-10-24 11:13:00,35.4,18.6,30.16,West,266,5.1,5.1,50,0.00,,---,0.00,VWS V13.01,2013-10-24 16:13:00,
2013-10-24 11:18:00,35.6,18.8,30.16,ENE,78,3.6,5.6,50,0.00,,---,0.00,VWS V13.01,2013-10-24 16:18:00,
2013-10-24 11:23:00,35.6,18.8,30.16,North,350,4.5,4.5,50,0.00,,---,0.00,VWS V13.01,2013-10-24 16:23:00,
2013-10-24 11:28:00,35.8,18.5,30.16,WNW,291,3.6,4.5,49,0.00,,---,0.00,VWS V13.01,2013-10-24 16:28:00,
2013-10-24 11:33:00,35.8,18.5,30.16,WSW,237,4.7,4.7,49,0.00,,---,0.00,VWS V13.01,2013-10-24 16:33:00,
2013-10-24 11:38:00,35.8,18.5,30.16,WNW,302,4.5,4.5,49,0.00,,---,0.00,VWS V13.01,2013-10-24 16:38:00,
2013-10-24 11:43:00,36.1,18.8,30.16,WNW,288,4.5,4.5,49,0.00,,---,0.00,VWS V13.01,2013-10-24 16:43:00,
2013-10-24 11:48:00,36.3,19.0,30.16,West,268,5.1,6.0,49,0.00,,---,0.00,VWS V13.01,2013-10-24 16:48:00,
2013-10-24 11:53:00,36.3,18.5,30.16,WSW,254,6.0,8.9,48,0.00,,---,0.00,VWS V13.01,2013-10-24 16:53:00,
2013-10-24 11:58:00,36.3,18.5,30.16,West,268,4.7,4.7,48,0.00,,---,0.00,VWS V13.01,2013-10-24 16:58:00,
2013-10-24 12:03:00,36.5,18.2,30.16,WNW,294,3.1,3.1,47,0.00,,---,0.00,VWS V13.01,2013-10-24 17:03:00,
2013-10-24 12:08:00,36.7,18.4,30.16,NW,307,3.6,4.7,47,0.00,,---,0.00,VWS V13.01,2013-10-24 17:08:00,
2013-10-24 12:13:00,36.9,18.5,30.16,NNW,337,4.0,4.0,47,0.00,,---,0.00,VWS V13.01,2013-10-24 17:13:00,
2013-10-24 12:19:00,37.0,18.2,30.16,SW,217,0.0,0.0,46,0.00,,---,0.00,VWS V13.01,2013-10-24 17:19:00,
2013-10-24 12:24:00,37.2,18.4,30.16,NNW,344,4.7,8.9,46,0.00,,---,0.00,VWS V13.01,2013-10-24 17:24:00,
2013-10-24 12:29:00,37.2,17.9,30.16,WNW,300,6.5,6.9,45,0.00,,---,0.00,VWS V13.01,2013-10-24 17:29:00,
2013-10-24 12:34:00,36.9,17.5,30.16,SSW,204,5.1,6.5,45,0.04,,---,0.04,VWS V13.01,2013-10-24 17:34:00,
2013-10-24 12:39:00,36.9,17.5,30.16,West,274,4.7,4.7,45,0.04,,---,0.04,VWS V13.01,2013-10-24 17:39:00,
2013-10-24 12:44:00,37.2,17.9,30.16,West,271,4.0,4.0,45,0.04,,---,0.04,VWS V13.01,2013-10-24 17:44:00,
2013-10-24 12:49:00,37.0,17.2,30.16,NE,34,4.5,6.0,44,0.04,,---,0.04,VWS V13.01,2013-10-24 17:49:00,
2013-10-24 12:54:00,37.4,17.0,30.16,WNW,300,5.1,6.5,43,0.04,,---,0.04,VWS V13.01,2013-10-24 17:54:00,
2013-10-24 12:59:00,37.9,16.9,30.16,West,272,7.4,7.4,42,0.04,,---,0.04,VWS V13.01,2013-10-24 17:59:00,
2013-10-24 13:04:00,38.1,17.1,30.16,NW,323,4.5,6.0,42,0.04,,---,0.04,VWS V13.01,2013-10-24 18:04:00,
2013-10-24 13:09:00,38.3,17.2,30.16,NNW,328,0.0,5.6,42,0.04,,---,0.04,VWS V13.01,2013-10-24 18:09:00,
2013-10-24 13:14:00,38.3,16.7,30.16,WNW,284,3.6,3.6,41,0.04,,---,0.04,VWS V13.01,2013-10-24 18:14:00,
2013-10-24 13:19:00,38.1,16.5,30.16,SW,234,2.7,4.0,41,0.04,,---,0.04,VWS V13.01,2013-10-24 18:19:00,
2013-10-24 13:25:00,38.3,17.2,30.16,NW,318,5.1,5.1,42,0.04,,---,0.04,VWS V13.01,2013-10-24 18:25:00,
2013-10-24 13:30:00,38.8,17.2,30.16,West,260,4.7,6.9,41,0.04,,---,0.04,VWS V13.01,2013-10-24 18:30:00,
2013-10-24 13:35:00,39.4,16.5,30.16,WNW,292,4.7,4.7,39,0.00,,---,0.04,VWS V13.01,2013-10-24 18:35:00,
2013-10-24 13:40:00,40.3,17.3,30.16,West,275,5.6,6.5,39,0.00,,---,0.04,VWS V13.01,2013-10-24 18:40:00,
2013-10-24 13:45:00,40.5,16.9,30.16,North,350,6.0,6.0,38,0.00,,---,0.04,VWS V13.01,2013-10-24 18:45:00,
2013-10-24 13:50:00,40.5,16.9,30.16,NNE,14,6.5,6.5,38,0.00,,---,0.04,VWS V13.01,2013-10-24 18:50:00,
2013-10-24 13:55:00,40.3,16.1,30.16,WSW,243,5.1,5.1,37,0.00,,---,0.04,VWS V13.01,2013-10-24 18:55:00,
2013-10-24 14:00:00,40.5,16.9,30.16,West,260,6.5,6.5,38,0.00,,---,0.04,VWS V13.01,2013-10-24 19:00:00,
2013-10-24 14:05:00,41.0,17.4,30.16,North,1,5.1,5.6,38,0.00,,---,0.04,VWS V13.01,2013-10-24 19:05:00,
2013-10-24 14:11:00,40.5,16.3,30.16,West,274,4.7,4.7,37,0.00,,---,0.04,VWS V13.01,2013-10-24 19:11:00,
2013-10-24 14:16:00,40.5,16.3,30.16,SW,222,4.0,4.0,37,0.00,,---,0.04,VWS V13.01,2013-10-24 19:16:00,
2013-10-24 14:21:00,40.6,16.4,30.16,WSW,242,3.6,7.8,37,0.00,,---,0.04,VWS V13.01,2013-10-24 19:21:00,
2013-10-24 14:26:00,40.1,15.3,30.16,West,281,4.5,6.0,36,0.00,,---,0.04,VWS V13.01,2013-10-24 19:26:00,
2013-10-24 14:31:00,39.7,15.0,30.16,West,269,6.0,8.3,36,0.00,,---,0.04,VWS V13.01,2013-10-24 19:31:00,
2013-10-24 14:36:00,39.4,14.7,30.16,WNW,297,4.7,5.6,36,0.00,,---,0.04,VWS V13.01,2013-10-24 19:36:00,
2013-10-24 14:41:00,39.0,14.3,30.16,WSW,250,5.1,6.5,36,0.00,,---,0.04,VWS V13.01,2013-10-24 19:41:00,
2013-10-24 14:46:00,38.7,15.3,30.16,WSW,251,3.6,6.5,38,0.00,,---,0.04,VWS V13.01,2013-10-24 19:46:00,
2013-10-24 14:51:00,38.8,15.4,30.16,North,353,4.5,5.6,38,0.00,,---,0.04,VWS V13.01,2013-10-24 19:51:00,
2013-10-24 14:56:00,39.6,14.8,30.16,NNE,23,5.6,5.6,36,0.00,,---,0.04,VWS V13.01,2013-10-24 19:56:00,
2013-10-24 15:01:00,39.6,15.4,30.19,West,259,3.6,6.5,37,0.00,,---,0.04,VWS V13.01,2013-10-24 20:01:00,
2013-10-24 15:06:00,39.2,15.1,30.19,NNE,18,3.1,5.1,37,0.00,,---,0.04,VWS V13.01,2013-10-24 20:06:00,
2013-10-24 15:11:00,38.8,15.4,30.19,North,357,4.5,4.5,38,0.04,,---,0.08,VWS V13.01,2013-10-24 20:11:00,
2013-10-24 15:17:00,38.7,15.3,30.19,North,357,5.6,5.6,38,0.04,,---,0.08,VWS V13.01,2013-10-24 20:17:00,
2013-10-24 15:22:00,38.7,15.3,30.19,NNW,337,3.6,3.6,38,0.04,,---,0.08,VWS V13.01,2013-10-24 20:22:00,
2013-10-24 15:27:00,38.5,15.1,30.19,SW,227,3.1,3.6,38,0.04,,---,0.08,VWS V13.01,2013-10-24 20:27:00,
2013-10-24 15:32:00,38.7,15.3,30.19,NNW,335,3.1,4.7,38,0.04,,---,0.08,VWS V13.01,2013-10-24 20:32:00,
2013-10-24 15:37:00,38.5,14.5,30.19,NNW,328,2.7,4.0,37,0.04,,---,0.08,VWS V13.01,2013-10-24 20:37:00,
2013-10-24 15:42:00,38.3,13.7,30.19,West,272,3.1,4.7,36,0.04,,---,0.08,VWS V13.01,2013-10-24 20:42:00,
2013-10-24 15:47:00,38.3,13.7,30.19,NNE,27,7.8,7.8,36,0.04,,---,0.08,VWS V13.01,2013-10-24 20:47:00,
2013-10-24 15:52:00,38.1,13.5,30.19,North,350,4.5,4.5,36,0.04,,---,0.08,VWS V13.01,2013-10-24 20:52:00,
2013-10-24 15:57:00,38.1,14.2,30.19,WSW,252,3.1,5.6,37,0.04,,---,0.08,VWS V13.01,2013-10-24 20:57:00,
2013-10-24 16:02:00,38.7,14.6,30.19,North,350,5.1,5.1,37,0.04,,---,0.08,VWS V13.01,2013-10-24 21:02:00,
2013-10-24 16:07:00,38.8,14.8,30.19,NW,326,6.0,6.5,37,0.04,,---,0.08,VWS V13.01,2013-10-24 21:07:00,
2013-10-24 16:12:00,38.7,14.6,30.19,NNW,348,3.6,4.7,37,0.00,,---,0.08,VWS V13.01,2013-10-24 21:12:00,
2013-10-24 16:17:00,38.5,14.5,30.19,NNW,338,5.1,5.1,37,0.00,,---,0.08,VWS V13.01,2013-10-24 21:17:00,
2013-10-24 16:22:00,38.7,15.3,30.19,WNW,303,3.6,4.0,38,0.00,,---,0.08,VWS V13.01,2013-10-24 21:22:00,
2013-10-24 16:27:00,38.7,14.6,30.19,North,4,6.0,6.0,37,0.00,,---,0.08,VWS V13.01,2013-10-24 21:27:00,
2013-10-24 16:32:00,38.7,14.6,30.19,NNW,338,4.0,4.0,37,0.00,,---,0.08,VWS V13.01,2013-10-24 21:32:00,
2013-10-24 16:38:00,38.5,14.5,30.19,WSW,237,3.6,3.6,37,0.00,,---,0.08,VWS V13.01,2013-10-24 21:38:00,
2013-10-24 16:43:00,38.7,15.3,30.19,NW,312,4.0,4.7,38,0.00,,---,0.08,VWS V13.01,2013-10-24 21:43:00,
2013-10-24 16:48:00,38.7,15.3,30.19,West,272,4.7,4.7,38,0.00,,---,0.08,VWS V13.01,2013-10-24 21:48:00,
2013-10-24 16:53:00,38.7,15.3,30.19,SW,216,5.6,5.6,38,0.00,,---,0.08,VWS V13.01,2013-10-24 21:53:00,
2013-10-24 16:58:00,38.5,14.5,30.19,NNE,17,3.6,3.6,37,0.00,,---,0.08,VWS V13.01,2013-10-24 21:58:00,
2013-10-24 17:03:00,38.5,15.1,30.19,North,5,4.5,4.5,38,0.00,,---,0.08,VWS V13.01,2013-10-24 22:03:00,
2013-10-24 17:08:00,38.3,14.9,30.19,NNW,332,3.1,3.1,38,0.00,,---,0.08,VWS V13.01,2013-10-24 22:08:00,
2013-10-24 17:13:00,38.1,14.8,30.19,WNW,296,0.0,0.0,38,0.00,,---,0.08,VWS V13.01,2013-10-24 22:13:00,
2013-10-24 17:18:00,38.1,14.8,30.19,WNW,297,3.1,3.1,38,0.00,,---,0.08,VWS V13.01,2013-10-24 22:18:00,
2013-10-24 17:23:00,38.1,14.8,30.19,WNW,297,3.1,3.1,38,0.00,,---,0.08,VWS V13.01,2013-10-24 22:23:00,
2013-10-24 17:28:00,37.9,15.2,30.19,WNW,297,0.0,0.0,39,0.00,,---,0.08,VWS V13.01,2013-10-24 22:28:00,
2013-10-24 17:33:00,37.9,15.2,30.19,WSW,252,2.7,3.6,39,0.00,,---,0.08,VWS V13.01,2013-10-24 22:33:00,
2013-10-24 17:38:00,37.9,15.2,30.19,WSW,252,0.0,0.0,39,0.00,,---,0.08,VWS V13.01,2013-10-24 22:38:00,
2013-10-24 17:43:00,37.9,15.2,30.22,WSW,252,0.0,0.0,39,0.00,,---,0.08,VWS V13.01,2013-10-24 22:43:00,
2013-10-24 17:49:00,37.8,15.0,30.22,WSW,252,0.0,0.0,39,0.00,,---,0.08,VWS V13.01,2013-10-24 22:49:00,
2013-10-24 17:54:00,37.6,14.9,30.22,WSW,252,0.0,0.0,39,0.00,,---,0.08,VWS V13.01,2013-10-24 22:54:00,
2013-10-24 17:59:00,37.6,14.9,30.19,WSW,252,0.0,0.0,39,0.00,,---,0.08,VWS V13.01,2013-10-24 22:59:00,
2013-10-24 18:04:00,37.4,14.7,30.19,WSW,252,0.0,0.0,39,0.00,,---,0.08,VWS V13.01,2013-10-24 23:04:00,
2013-10-24 18:09:00,37.4,14.7,30.19,WSW,252,0.0,0.0,39,0.00,,---,0.08,VWS V13.01,2013-10-24 23:09:00,
2013-10-24 18:14:00,37.4,14.7,30.22,WSW,252,0.0,0.0,39,0.00,,---,0.08,VWS V13.01,2013-10-24 23:14:00,
2013-10-24 18:19:00,37.2,15.1,30.22,WSW,252,0.0,0.0,40,0.00,,---,0.08,VWS V13.01,2013-10-24 23:19:00,
2013-10-24 18:24:00,37.0,15.0,30.22,WSW,252,0.0,0.0,40,0.00,,---,0.08,VWS V13.01,2013-10-24 23:24:00,
2013-10-24 18:29:00,36.9,14.8,30.22,WSW,252,0.0,0.0,40,0.00,,---,0.08,VWS V13.01,2013-10-24 23:29:00,
2013-10-24 18:34:00,36.7,14.6,30.22,WSW,252,0.0,0.0,40,0.00,,---,0.08,VWS V13.01,2013-10-24 23:34:00,
2013-10-24 18:39:00,36.7,14.6,30.22,WSW,252,0.0,0.0,40,0.00,,---,0.08,VWS V13.01,2013-10-24 23:39:00,
2013-10-24 18:44:00,36.5,15.1,30.22,WSW,252,0.0,0.0,41,0.00,,---,0.08,VWS V13.01,2013-10-24 23:44:00,
2013-10-24 18:50:00,36.3,14.9,30.22,WSW,252,0.0,0.0,41,0.00,,---,0.08,VWS V13.01,2013-10-24 23:50:00,
2013-10-24 18:55:00,36.3,14.9,30.22,WSW,252,0.0,0.0,41,0.00,,---,0.08,VWS V13.01,2013-10-24 23:55:00,
2013-10-24 19:00:00,36.1,14.7,30.22,WSW,252,0.0,0.0,41,0.00,,---,0.08,VWS V13.01,2013-10-25 00:00:00,
2013-10-24 19:05:00,36.0,14.6,30.22,WSW,252,3.1,4.0,41,0.00,,---,0.08,VWS V13.01,2013-10-25 00:05:00,
2013-10-24 19:10:00,36.0,14.6,30.22,SW,229,6.0,7.4,41,0.00,,---,0.08,VWS V13.01,2013-10-25 00:10:00,
2013-10-24 19:15:00,36.1,14.7,30.22,WSW,257,3.6,3.6,41,0.00,,---,0.08,VWS V13.01,2013-10-25 00:15:00,
2013-10-24 19:20:00,36.1,15.3,30.22,WSW,244,4.5,5.6,42,0.00,,---,0.08,VWS V13.01,2013-10-25 00:20:00,
2013-10-24 19:25:00,36.1,15.3,30.22,West,276,5.1,5.6,42,0.00,,---,0.08,VWS V13.01,2013-10-25 00:25:00,
2013-10-24 19:30:00,36.1,16.9,30.22,NNW,328,4.0,4.7,45,0.00,,---,0.08,VWS V13.01,2013-10-25 00:30:00,
2013-10-24 19:35:00,35.8,17.5,30.22,NW,307,4.5,4.5,47,0.00,,---,0.08,VWS V13.01,2013-10-25 00:35:00,
2013-10-24 19:40:00,35.6,19.3,30.22,WSW,250,4.0,5.6,51,0.00,,---,0.08,VWS V13.01,2013-10-25 00:40:00,
2013-10-24 19:46:00,35.2,19.4,30.22,West,262,3.1,4.5,52,0.00,,---,0.08,VWS V13.01,2013-10-25 00:46:00,
2013-10-24 19:51:00,34.9,19.5,30.22,West,262,0.0,3.6,53,0.00,,---,0.08,VWS V13.01,2013-10-25 00:51:00,
2013-10-24 19:56:00,34.7,19.3,30.22,West,262,3.6,4.0,53,0.00,,---,0.08,VWS V13.01,2013-10-25 00:56:00,
2013-10-24 20:01:00,34.5,19.2,30.22,West,262,4.0,4.5,53,0.00,,---,0.08,VWS V13.01,2013-10-25 01:01:00,
2013-10-24 20:06:00,34.3,19.9,30.22,WSW,245,4.0,4.5,55,0.00,,---,0.08,VWS V13.01,2013-10-25 01:06:00,
2013-10-24 20:11:00,34.2,20.1,30.22,WSW,254,3.6,3.6,56,0.00,,---,0.08,VWS V13.01,2013-10-25 01:11:00,
2013-10-24 20:16:00,34.0,20.4,30.22,WSW,250,2.7,2.7,57,0.00,,---,0.08,VWS V13.01,2013-10-25 01:16:00,
2013-10-24 20:21:00,34.2,20.5,30.22,SW,227,4.7,4.7,57,0.00,,---,0.08,VWS V13.01,2013-10-25 01:21:00,
2013-10-24 20:26:00,34.2,20.9,30.22,SW,229,0.0,0.0,58,0.00,,---,0.08,VWS V13.01,2013-10-25 01:26:00,
2013-10-24 20:31:00,34.2,20.9,30.22,SW,229,2.7,3.1,58,0.00,,---,0.08,VWS V13.01,2013-10-25 01:31:00,
2013-10-24 20:36:00,34.0,20.8,30.22,SW,229,2.7,2.7,58,0.00,,---,0.08,VWS V13.01,2013-10-25 01:36:00,
2013-10-24 20:41:00,33.8,20.2,30.22,SW,229,2.7,3.1,57,0.00,,---,0.08,VWS V13.01,2013-10-25 01:41:00,
2013-10-24 20:46:00,33.8,20.2,30.22,SW,227,4.0,4.5,57,0.00,,---,0.08,VWS V13.01,2013-10-25 01:46:00,
2013-10-24 20:51:00,33.6,20.4,30.22,SW,227,0.0,0.0,58,0.00,,---,0.08,VWS V13.01,2013-10-25 01:51:00,
2013-10-24 20:56:00,33.4,20.3,30.22,SW,227,0.0,0.0,58,0.00,,---,0.08,VWS V13.01,2013-10-25 01:56:00,
2013-10-24 21:01:00,33.4,20.3,30.22,SW,227,0.0,0.0,58,0.00,,---,0.08,VWS V13.01,2013-10-25 02:01:00,
2013-10-24 21:06:00,33.4,20.7,30.22,SW,227,0.0,0.0,59,0.00,,---,0.08,VWS V13.01,2013-10-25 02:06:00,
2013-10-24 21:12:00,33.6,20.8,30.22,SW,227,3.1,4.0,59,0.00,,---,0.08,VWS V13.01,2013-10-25 02:12:00,
2013-10-24 21:17:00,33.8,20.6,30.22,SW,227,0.0,0.0,58,0.00,,---,0.08,VWS V13.01,2013-10-25 02:17:00,
2013-10-24 21:22:00,34.0,20.8,30.22,NW,313,0.0,2.7,58,0.00,,---,0.08,VWS V13.01,2013-10-25 02:22:00,
2013-10-24 21:27:00,34.3,21.1,30.22,NNW,329,0.0,0.0,58,0.00,,---,0.08,VWS V13.01,2013-10-25 02:27:00,
2013-10-24 21:32:00,34.5,21.3,30.22,NNW,329,2.7,3.6,58,0.00,,---,0.08,VWS V13.01,2013-10-25 02:32:00,
2013-10-24 21:37:00,34.7,21.0,30.22,NNW,329,0.0,0.0,57,0.00,,---,0.08,VWS V13.01,2013-10-25 02:37:00,
2013-10-24 21:42:00,34.9,20.8,30.22,NNW,329,0.0,0.0,56,0.00,,---,0.08,VWS V13.01,2013-10-25 02:42:00,
2013-10-24 21:47:00,34.9,20.4,30.22,WSW,239,0.0,0.0,55,0.00,,---,0.08,VWS V13.01,2013-10-25 02:47:00,
2013-10-24 21:52:00,34.9,19.9,30.22,WSW,241,3.6,4.5,54,0.00,,---,0.08,VWS V13.01,2013-10-25 02:52:00,
2013-10-24 21:57:00,34.7,19.8,30.22,WSW,244,0.0,0.0,54,0.00,,---,0.08,VWS V13.01,2013-10-25 02:57:00,
2013-10-24 22:02:00,34.7,19.3,30.22,WSW,244,0.0,0.0,53,0.00,,---,0.08,VWS V13.01,2013-10-25 03:02:00,
2013-10-24 22:07:00,34.5,19.2,30.22,WSW,244,0.0,3.1,53,0.00,,---,0.08,VWS V13.01,2013-10-25 03:07:00,
2013-10-24 22:13:00,34.5,19.2,30.22,WSW,244,0.0,0.0,53,0.00,,---,0.08,VWS V13.01,2013-10-25 03:13:00,
2013-10-24 22:18:00,34.5,18.7,30.22,WSW,244,0.0,0.0,52,0.00,,---,0.08,VWS V13.01,2013-10-25 03:18:00,
2013-10-24 22:23:00,34.7,18.9,30.22,WSW,244,0.0,0.0,52,0.00,,---,0.08,VWS V13.01,2013-10-25 03:23:00,
2013-10-24 22:28:00,34.9,18.6,30.22,WSW,244,0.0,0.0,51,0.00,,---,0.08,VWS V13.01,2013-10-25 03:28:00,
2013-10-24 22:33:00,34.7,18.4,30.22,WSW,244,0.0,0.0,51,0.00,,---,0.08,VWS V13.01,2013-10-25 03:33:00,
2013-10-24 22:38:00,34.5,18.3,30.22,WSW,244,2.7,4.0,51,0.00,,---,0.08,VWS V13.01,2013-10-25 03:38:00,
2013-10-24 22:43:00,34.2,17.9,30.22,WSW,244,0.0,0.0,51,0.00,,---,0.08,VWS V13.01,2013-10-25 03:43:00,
2013-10-24 22:48:00,34.0,17.8,30.22,WSW,244,0.0,0.0,51,0.00,,---,0.08,VWS V13.01,2013-10-25 03:48:00,
2013-10-24 22:53:00,33.8,17.6,30.22,WSW,244,2.7,3.1,51,0.00,,---,0.08,VWS V13.01,2013-10-25 03:53:00,
2013-10-24 22:58:00,33.8,17.6,30.22,WSW,244,0.0,3.6,51,0.00,,---,0.08,VWS V13.01,2013-10-25 03:58:00,
2013-10-24 23:01:00,33.8,17.6,30.22,NW,307,4.0,4.0,51,0.00,,---,0.08,VWS V13.01,2013-10-25 04:01:00,
2013-10-24 23:02:00,33.6,17.9,30.22,WNW,301,4.5,4.7,52,0.00,,---,0.08,VWS V13.01,2013-10-25 04:02:00,
2013-10-24 23:07:00,33.8,17.6,30.22,WNW,301,3.1,3.6,51,0.00,,---,0.08,VWS V13.01,2013-10-25 04:07:00,
2013-10-24 23:12:00,34.0,17.8,30.25,West,277,4.7,4.7,51,0.00,,---,0.08,VWS V13.01,2013-10-25 04:12:00,
2013-10-24 23:17:00,34.2,17.9,30.25,NW,325,3.6,3.6,51,0.00,,---,0.08,VWS V13.01,2013-10-25 04:17:00,
2013-10-24 23:22:00,34.3,18.1,30.25,NW,304,3.1,4.0,51,0.00,,---,0.08,VWS V13.01,2013-10-25 04:22:00,
2013-10-24 23:27:00,34.7,18.4,30.25,NW,316,3.1,4.7,51,0.00,,---,0.08,VWS V13.01,2013-10-25 04:27:00,
2013-10-24 23:32:00,34.7,18.4,30.25,West,276,3.6,3.6,51,0.00,,---,0.08,VWS V13.01,2013-10-25 04:32:00,
2013-10-24 23:37:00,34.9,18.6,30.25,West,263,4.7,4.7,51,0.00,,---,0.08,VWS V13.01,2013-10-25 04:37:00,
2013-10-24 23:43:00,34.9,18.6,30.25,West,272,4.0,4.0,51,0.00,,---,0.08,VWS V13.01,2013-10-25 04:43:00,
2013-10-24 23:48:00,34.9,18.6,30.25,WNW,284,4.0,4.0,51,0.00,,---,0.08,VWS V13.01,2013-10-25 04:48:00,
2013-10-24 23:53:00,34.7,18.4,30.25,NW,312,4.0,5.1,51,0.00,,---,0.08,VWS V13.01,2013-10-25 04:53:00,
2013-10-24 23:58:00,34.7,18.4,30.25,WNW,285,4.7,4.7,51,0.00,,---,0.08,VWS V13.01,2013-10-25 04:58:00,